User: anonymous   Login
Location: Unspecified
(0.0000°N, 0.0000°E)
Time: 19:45:34
(UTC+00:00)
Language:

XW-2C - Orbit

View from above orbital plane
View from above orbital plane
View from above satellite
View from above satellite

Ground track
Ground track

The orbit data is extracted from the following two-line orbital elements,

1 40906U 15049H   20223.51104307  .00000342  00000-0  21156-4 0  9996
2 40906  97.4777 224.0655 0014597 180.1393 335.8538 15.16128542270444
Epoch (UTC): 10 August 2020 12:15:54
Eccentricity: 0.0014597
inclination: 97.4777°
perigee height: 507 km
apogee height: 527 km
right ascension of ascending node: 224.0655°
argument of perigee: 180.1393°
revolutions per day: 15.16128542
mean anomaly at epoch: 335.8538°
orbit number at epoch: 27044

The dashed part of the orbit path shows where the satellite is in the earth's shadow,  

DLR